Location: Newark
(15.4608°S, 41.1635°W)
Time: 19:56:24
(UTC+00:00)

Courier 1B - All Passes

Search period start: 28 February 2021 00:00
Search period end: 10 March 2021 00:00
Orbit: 962 x 1209 km, 28.3° (Epoch: 28 February)

Date Brightness Start Highest point End Pass type
(mag) Time Alt. Az. Time Alt. Az. Time Alt. Az.
28 Feb - 01:40:21 10° WSW 01:46:57 30° S 01:53:15 10° SE visible
28 Feb - 03:35:41 10° SW 03:42:25 36° SSE 03:48:45 10° ESE night (unlit)
28 Feb - 05:30:01 10° WSW 05:37:09 77° SSE 05:43:50 10° ENE visible
28 Feb - 07:25:06 10° W 07:31:05 33° NNW 07:36:51 10° NNE visible
28 Feb - 19:03:24 10° N 19:08:34 19° NNE 19:13:50 10° ENE daylight
28 Feb - 20:55:05 10° NW 21:02:47 63° NNE 21:10:33 10° ESE daylight
28 Feb - 22:49:42 10° W 22:57:23 54° SSW 23:04:57 10° ESE visible
01 Mar - 00:45:51 10° WSW 00:52:40 32° S 00:59:14 10° SE visible
01 Mar - 02:41:33 10° SW 02:48:14 33° S 02:54:34 10° ESE night (unlit)
01 Mar - 04:36:02 10° WSW 04:43:15 60° SSE 04:49:59 10° E night (unlit)
01 Mar - 06:30:44 10° WSW 06:37:23 47° NNW 06:43:41 10° NE visible
01 Mar - 08:29:19 10° NW 08:31:13 11° NNW 08:33:07 10° NNW daylight
01 Mar - 18:11:26 10° N 18:14:37 13° NNE 18:17:52 10° ENE daylight
01 Mar - 20:01:31 10° NW 20:08:49 47° NNE 20:16:18 10° ESE daylight
01 Mar - 21:55:27 10° WNW 22:03:15 67° SSW 22:11:04 10° ESE visible
01 Mar - 23:51:19 10° WSW 23:58:23 35° S 00:05:17 10° SE visible
02 Mar - 01:47:18 10° SW 01:53:59 31° S 02:00:23 10° ESE visible
02 Mar - 03:42:03 10° SW 03:49:15 49° SSE 03:56:00 10° E night (unlit)
02 Mar - 05:36:32 10° WSW 05:43:38 65° NNW 05:50:17 10° NE visible
02 Mar - 07:33:08 10° WNW 07:37:27 18° NNW 07:41:39 10° N visible
02 Mar - 19:08:11 10° NNW 19:14:53 34° NNE 19:21:49 10° E daylight
02 Mar - 21:01:22 10° WNW 21:09:10 83° SSW 21:17:07 10° ESE daylight
02 Mar - 22:56:49 10° W 23:04:07 40° SSW 23:11:21 10° SE visible
03 Mar - 00:52:57 10° WSW 00:59:41 30° S 01:06:12 10° ESE visible
03 Mar - 02:48:01 10° SW 02:55:09 41° SSE 03:01:53 10° E night (unlit)
03 Mar - 04:42:25 10° WSW 04:49:49 87° NNW 04:56:42 10° ENE night (unlit)
03 Mar - 06:38:05 10° W 06:43:43 26° NNW 06:49:06 10° NNE visible
03 Mar - 18:15:10 10° NNW 18:20:59 25° NNE 18:27:02 10° E daylight
03 Mar - 20:07:30 10° WNW 20:15:09 78° NNE 20:23:03 10° ESE daylight
03 Mar - 22:02:25 10° W 22:09:54 47° SSW 22:17:25 10° SE visible
03 Mar - 23:58:32 10° WSW 00:05:22 31° S 00:12:03 10° ESE visible
04 Mar - 01:53:55 10° SW 02:00:58 36° S 02:07:41 10° ESE visible
04 Mar - 03:48:21 10° WSW 03:55:54 74° SSE 04:02:56 10° ENE night (unlit)
04 Mar - 05:43:28 10° W 05:49:58 37° NNW 05:56:08 10° NE visible
04 Mar - 17:22:39 10° N 17:27:07 17° NNE 17:31:43 10° ENE daylight
04 Mar - 19:13:50 10° NW 19:21:11 59° NNE 19:28:52 10° ESE daylight
04 Mar - 21:08:08 10° W 21:15:43 56° SSW 21:23:28 10° ESE daylight
04 Mar - 23:04:05 10° WSW 23:11:02 33° S 23:17:56 10° SE visible
05 Mar - 00:59:46 10° SW 01:06:42 33° S 01:13:26 10° ESE visible
05 Mar - 02:54:19 10° WSW 03:01:54 59° SSE 03:09:01 10° E night (unlit)
05 Mar - 04:49:03 10° WSW 04:56:12 52° NNW 05:02:53 10° NE night (unlit)
05 Mar - 06:46:58 10° WNW 06:50:05 13° NNW 06:53:08 10° N visible
05 Mar - 16:31:33 10° NNE 16:33:13 11° NNE 16:34:55 10° NE daylight
05 Mar - 18:20:24 10° NW 18:27:17 43° NNE 18:34:31 10° E daylight
05 Mar - 20:14:02 10° WNW 20:21:36 70° SSW 20:29:29 10° ESE daylight
05 Mar - 22:09:38 10° WSW 22:16:43 36° S 22:23:52 10° SE visible
06 Mar - 00:05:32 10° WSW 00:12:24 32° S 00:19:07 10° ESE visible
06 Mar - 02:00:18 10° SW 02:07:48 49° SSE 02:14:56 10° E night (unlit)
06 Mar - 03:54:49 10° WSW 04:02:22 70° NNW 04:09:25 10° NE night (unlit)
06 Mar - 05:51:15 10° WNW 05:56:18 20° NNW 06:01:09 10° NNE visible
06 Mar - 17:27:14 10° NNW 17:33:26 31° NNE 17:39:57 10° E daylight
06 Mar - 19:20:05 10° WNW 19:27:34 87° SSW 19:35:27 10° ESE daylight
06 Mar - 21:15:15 10° W 21:22:27 41° SSW 21:29:49 10° SE visible
06 Mar - 23:11:14 10° WSW 23:18:03 31° S 23:24:50 10° ESE visible
07 Mar - 01:06:16 10° SW 01:13:37 41° SSE 01:20:43 10° E visible
07 Mar - 03:00:41 10° WSW 03:08:27 89° SSE 03:15:45 10° ENE night (unlit)
07 Mar - 04:56:16 10° W 05:02:31 29° NNW 05:08:26 10° NNE night (unlit)
07 Mar - 16:34:26 10° NNW 16:39:36 22° NNE 16:45:01 10° E daylight
07 Mar - 18:26:21 10° NW 18:33:36 73° NNE 18:41:19 10° ESE daylight
07 Mar - 20:20:59 10° W 20:28:15 48° SSW 20:35:49 10° SE daylight
07 Mar - 22:16:53 10° WSW 22:23:42 32° S 22:30:34 10° ESE visible
08 Mar - 00:12:12 10° SW 00:19:23 36° S 00:26:23 10° ESE visible
08 Mar - 02:06:37 10° WSW 02:14:27 71° SSE 02:21:53 10° ENE night (unlit)
08 Mar - 04:01:40 10° W 04:08:42 41° NNW 04:15:21 10° NE night (unlit)
08 Mar - 15:42:14 10° N 15:45:48 14° NNE 15:49:27 10° ENE daylight
08 Mar - 17:32:50 10° NW 17:39:43 54° NNE 17:47:05 10° ESE daylight
08 Mar - 19:26:50 10° W 19:34:07 58° SSW 19:41:48 10° ESE daylight
08 Mar - 21:22:32 10° WSW 21:29:22 33° S 21:36:22 10° SE visible
08 Mar - 23:18:05 10° SW 23:25:04 33° S 23:32:00 10° ESE visible
09 Mar - 01:12:36 10° WSW 01:20:21 57° SSE 01:27:49 10° E visible
09 Mar - 03:07:16 10° WSW 03:14:50 57° NNW 03:21:59 10° NE night (unlit)
09 Mar - 05:04:40 10° WNW 05:08:50 16° NNW 05:12:52 10° N night (unlit)
09 Mar - 16:39:32 10° NW 16:45:55 39° NNE 16:52:41 10° E daylight
09 Mar - 18:32:52 10° WNW 18:40:04 72° SSW 18:47:46 10° ESE daylight
09 Mar - 20:28:13 10° WSW 20:35:05 36° S 20:42:13 10° SE daylight
09 Mar - 22:23:56 10° WSW 22:30:43 31° S 22:37:35 10° ESE visible
